#timestamp,LO_Frequency,Hit,StdDev 
1506420015.8,286046999.8,N
1506420035.6,286047002.8,N
1506420055.4,286047002.1,N
1506420075.3,286047000.1,N
1506420095.1,286047005.8,N
1506420096.0,286047005.8,N
1506420115.8,286047005.5,N
1506420135.7,286047004.3,N
1506420155.5,286047003.1,N
1506420175.3,286047003.3,N
1506420195.2,286047002.3,N
1506420215.9,286047000.4,N
1506420235.7,286047003.3,N
1506420255.5,286047006.7,N
1506420275.4,286047006.5,N
1506420295.2,286047006.2,N
1506420315.0,286047007.8,N
1506420315.9,286047007.8,N
1506420335.8,286047008.5,N
1506420355.6,286047008.2,N
1506420375.4,286046999.7,N
1506420395.3,286047002.2,N
1506420415.1,286047001.7,N
1506420435.8,286047006.4,N
1506420455.7,286047001.7,N
1506420475.5,286046999.4,N
1506420495.3,286046998.4,N
1506420515.2,286046997.4,N
1506420535.9,286046997.2,N
1506420555.7,286046997.1,N
1506420575.6,286047002.2,N
1506420595.4,286047000.4,N
1506420615.2,286046998.9,N
1506420635.0,286046998.7,N
1506420635.9,286046998.7,N
1506420655.8,286046996.9,N
1506420675.6,286046999.0,N
1506420695.4,286047000.6,N
1506420715.3,286047006.0,N
1506420735.1,286047003.4,N
1506420755.8,286047004.7,N
1506420775.7,286047003.2,N
1506420795.5,286047002.3,N
1506420815.3,286046998.6,N
1506420835.2,286047000.3,N
1506420855.9,286046998.8,N
1506420875.7,286047000.0,N
1506420895.6,286046998.3,N
1506420915.4,286046999.4,N
1506420935.2,286046998.2,N
1506420955.0,286046998.5,N
1506420956.0,286046998.5,N
1506420975.8,286047001.9,N
1506420995.6,286047003.4,N
1506421015.4,286047004.3,N
1506421035.3,286047000.9,N
1506421055.1,286047000.0,N
1506421075.8,286047000.3,N
1506421095.7,286047000.3,N
1506421115.5,286046999.9,N
1506421135.3,286047002.7,N
1506421155.2,286046998.8,N
1506421175.9,286047000.5,N
1506421195.7,286047001.5,N
1506421215.6,286047004.5,N
1506421235.4,286047003.6,N
1506421255.2,286047001.4,N
1506421275.1,286047003.7,N
1506421276.0,286047003.7,N
1506421295.8,286047005.6,N
1506421315.6,286047007.5,Y
1506421335.5,286047002.6,P
1506421355.3,286047005.8,P
1506421375.1,286046998.4,N
1506421395.9,286046998.4,N
1506421415.7,286047001.6,N
1506421435.5,286047001.3,N
1506421455.3,286047000.1,N
1506421475.2,286047005.9,N
1506421495.0,286047001.3,N
1506421495.9,286047001.3,N
1506421515.7,286046999.4,N
1506421535.6,286046997.1,N
1506421555.4,286046996.1,N
1506421575.2,286046997.3,N
1506421595.1,286046997.3,N
1506421596.0,286046997.3,N
1506421615.8,286046997.9,N
1506421635.6,286046994.9,N
1506421655.5,286046995.5,N
1506421675.3,286046993.6,N
1506421695.1,286046997.9,N
1506421715.9,286046995.3,N
1506421735.7,286046998.2,N
1506421755.5,286046998.2,N
1506421775.4,286046999.2,N
1506421795.2,286046999.1,N
1506421815.0,286047000.3,N
1506421815.9,286047000.3,N
1506421835.7,286047004.3,N
1506421855.6,286046999.1,N
1506421875.4,286046996.7,N
1506421895.2,286046995.8,N
1506421915.1,286047001.1,N
1506421916.0,286047001.1,N
1506421935.8,286047004.0,N
1506421955.6,286047003.6,N
1506421975.5,286047005.5,N
1506421995.3,286047002.6,N
1506422015.1,286047005.9,N
1506422035.9,286047006.6,N
1506422055.7,286047008.6,N
1506422075.5,286047008.7,N
1506422095.4,286047002.9,N
1506422115.2,286047005.9,N
1506422135.0,286047005.8,N
1506422135.9,286047005.8,N
1506422155.8,286047000.4,N
1506422175.6,286046999.7,N
1506422195.4,286047001.4,N
1506422215.3,286047005.6,N
1506422235.1,286047006.5,N
1506422236.0,286047006.5,N
1506422255.8,286047003.3,N
1506422275.6,286047001.8,N
1506422295.5,286047000.8,N
1506422315.3,286047000.9,N
1506422335.1,286047005.6,N
1506422355.9,286047003.6,N
1506422375.7,286047004.7,N
1506422395.5,286047005.3,N
1506422415.4,286047004.6,N
1506422435.2,286047003.2,N
1506422455.0,286047006.3,N
1506422455.9,286047006.3,N
1506422475.8,286047010.2,Y
1506422495.6,286047002.9,P
1506422515.4,286047007.1,P
1506422535.3,286047006.5,P
1506422555.1,286047006.8,Y
1506422575.8,286047004.6,P
1506422595.7,286047009.0,P
1506422615.5,286047008.7,P
1506422635.3,286047005.9,N
1506422655.2,286047007.2,Y
1506422675.9,286047000.1,P
1506422695.7,286046998.8,N
1506422715.6,286046996.7,N
1506422735.4,286046998.9,N
1506422755.2,286047001.3,N
1506422775.1,286047002.5,N
1506422776.0,286047002.5,N
1506422795.8,286047000.7,N
1506422815.6,286047002.0,N
1506422835.5,286047002.2,N
1506422855.3,286046996.2,N
1506422875.1,286046997.1,N
1506422895.8,286046995.1,N
1506422915.7,286046995.3,N
1506422935.5,286046997.9,N
1506422955.3,286047000.8,N
1506422975.2,286047001.8,N
1506422995.9,286047002.1,N
1506423015.7,286046998.4,N
1506423035.6,286047002.4,N
1506423055.4,286046999.6,N
1506423075.2,286046997.0,N
1506423095.1,286046999.6,N
1506423096.0,286046999.6,N
1506423115.8,286046999.5,N
1506423135.6,286046995.2,N
1506423155.4,286046994.8,N
1506423175.3,286046993.7,N
1506423195.1,286046990.1,Y
1506423215.9,286046993.2,P
1506423235.7,286046988.5,P
1506423255.5,286046990.6,N
1506423275.3,286046990.1,N
1506423295.2,286046996.0,N
1506423315.9,286046994.7,N
1506423335.7,286046995.4,N
1506423355.6,286046997.8,N
1506423375.4,286046998.4,N
1506423395.2,286046997.3,N
1506423415.1,286046996.5,N
1506423416.0,286046996.5,N
1506423435.8,286046999.0,N
1506423455.6,286047000.2,N
1506423475.5,286046998.4,N
1506423495.3,286046995.4,N
1506423515.1,286046993.8,N
1506423535.8,286046993.4,N
1506423555.7,286046998.3,N
1506423575.5,286046998.6,N
1506423595.3,286046997.6,N
